| time (UTC) | temp F | wind direction | speed MPH | gust MPH | rain 1hr in | rain 24hr in | rain mn in | humidity % | barometer mb |
| 20260903031050 | 62 | 0 | 0.0 | 6.0 | 0.00 | 0.03 | 0.03 | 80 | 1019.1 |
| 20260903030550 | 62 | 0 | 0.0 | 1.0 | 0.00 | 0.03 | 0.03 | 80 | 1019.2 |
| 20260903030134 | 62 | 0 | 0.0 | 0.0 | 0.00 | 0.03 | 0.03 | 79 | 1019.3 |
| 20260903025554 | 62 | 0 | 0.0 | 0.0 | 0.00 | 0.03 | 0.03 | 79 | 1019.4 |
| 20260903025050 | 63 | 0 | 0.0 | 0.0 | 0.00 | 0.03 | 0.03 | 79 | 1019.3 |
| 20260903024624 | 63 | 0 | 0.0 | 0.0 | 0.00 | 0.03 | 0.03 | 79 | 1019.6 |
| 20260903024051 | 63 | 0 | 0.0 | 0.0 | 0.00 | 0.03 | 0.03 | 78 | 1019.4 |
| 20260903023602 | 63 | 0 | 0.0 | 0.0 | 0.00 | 0.03 | 0.03 | 78 | 1019.2 |
| 20260903023101 | 63 | 0 | 0.0 | 0.0 | 0.00 | 0.03 | 0.03 | 78 | 1019.4 |
| 20260903022551 | 63 | 0 | 0.0 | 0.0 | 0.00 | 0.03 | 0.03 | 77 | 1019.6 |
| 20260903022054 | 63 | 0 | 0.0 | 0.0 | 0.00 | 0.03 | 0.03 | 77 | 1019.6 |
| 20260903021556 | 63 | 0 | 0.0 | 0.0 | 0.00 | 0.03 | 0.03 | 77 | 1019.4 |
| 20260903021051 | 63 | 0 | 0.0 | 0.0 | 0.00 | 0.03 | 0.03 | 76 | 1019.6 |
| 20260903020647 | 63 | 0 | 0.0 | 0.0 | 0.00 | 0.03 | 0.03 | 76 | 1019.5 |
| 20260903020105 | 63 | 0 | 0.0 | 0.0 | 0.00 | 0.03 | 0.03 | 76 | 1019.6 |
| 20260903015618 | 63 | 0 | 0.0 | 0.0 | 0.00 | 0.03 | 0.03 | 75 | 1019.5 |
| 20260903015249 | 63 | 0 | 0.0 | 0.0 | 0.00 | 0.03 | 0.03 | 75 | 1019.3 |
| 20260903014605 | 63 | 0 | 0.0 | 0.0 | 0.00 | 0.03 | 0.03 | 74 | 1019.4 |
| 20260903014051 | 63 | 0 | 0.0 | 0.0 | 0.00 | 0.03 | 0.03 | 74 | 1019.5 |
| 20260903013550 | 63 | 0 | 0.0 | 5.0 | 0.00 | 0.03 | 0.03 | 74 | 1019.3 |
| 20260903013102 | 63 | 0 | 0.0 | 5.0 | 0.00 | 0.03 | 0.03 | 73 | 1019.4 |
| 20260903012549 | 63 | 0 | 0.0 | 5.0 | 0.00 | 0.03 | 0.03 | 72 | 1019.5 |
| 20260903012050 | 63 | 0 | 0.0 | 3.0 | 0.00 | 0.03 | 0.03 | 72 | 1019.3 |
| 20260903011609 | 63 | 0 | 0.0 | 0.0 | 0.00 | 0.03 | 0.03 | 72 | 1019.3 |
| 20260903011050 | 63 | 0 | 0.0 | 2.0 | 0.00 | 0.03 | 0.03 | 72 | 1019.3 |
| 20260903010554 | 63 | 0 | 0.0 | 2.0 | 0.00 | 0.03 | 0.03 | 72 | 1019.4 |
| 20260903010146 | 63 | 0 | 0.0 | 3.0 | 0.00 | 0.03 | 0.03 | 72 | 1019.4 |
| 20260903005550 | 64 | 0 | 0.0 | 7.0 | 0.00 | 0.03 | 0.03 | 71 | 1019.5 |
| 20260903005053 | 64 | 0 | 0.0 | 7.0 | 0.00 | 0.03 | 0.03 | 71 | 1019.2 |
| 20260903004600 | 64 | 0 | 0.0 | 4.0 | 0.00 | 0.03 | 0.03 | 72 | 1019.3 |
| 20260903004054 | 64 | 0 | 0.0 | 1.0 | 0.00 | 0.03 | 0.03 | 72 | 1019.4 |
| 20260903003552 | 64 | 0 | 0.0 | 0.0 | 0.00 | 0.03 | 0.03 | 72 | 1019.4 |
| 20260903003128 | 64 | 0 | 0.0 | 0.0 | 0.00 | 0.03 | 0.03 | 72 | 1019.2 |
| 20260903002745 | 64 | 0 | 0.0 | 0.0 | 0.00 | 0.03 | 0.03 | 73 | 1019.2 |
| 20260903000627 | 64 | 0 | 0.0 | 5.0 | 0.00 | 0.03 | 0.03 | 73 | 1018.8 |
| 20260903000104 | 64 | 0 | 0.0 | 9.0 | 0.00 | 0.03 | 0.03 | 73 | 1018.9 |
| 20260902235557 | 64 | 0 | 1.0 | 9.0 | 0.00 | 0.03 | 0.03 | 74 | 1018.9 |
| 20260902235122 | 63 | 0 | 0.0 | 5.0 | 0.00 | 0.03 | 0.03 | 75 | 1018.8 |
| 20260902234559 | 63 | 0 | 0.0 | 4.0 | 0.00 | 0.03 | 0.03 | 76 | 1018.9 |
| 20260902234052 | 63 | 0 | 0.0 | 2.0 | 0.00 | 0.03 | 0.03 | 76 | 1018.9 |
| 20260902233650 | 63 | 0 | 0.0 | 2.0 | 0.00 | 0.03 | 0.03 | 76 | 1019.1 |
| 20260902233102 | 63 | 0 | 0.0 | 4.0 | 0.00 | 0.03 | 0.03 | 77 | 1019.3 |
| 20260902232552 | 63 | 0 | 0.0 | 4.0 | 0.00 | 0.03 | 0.03 | 77 | 1019.6 |
| 20260902232052 | 64 | 0 | 0.0 | 0.0 | 0.00 | 0.03 | 0.03 | 78 | 1019.8 |
| 20260902231606 | 64 | 0 | 0.0 | 0.0 | 0.00 | 0.03 | 0.03 | 78 | 1019.8 |
| 20260902231050 | 64 | 0 | 0.0 | 0.0 | 0.00 | 0.03 | 0.03 | 80 | 1020.0 |
| 20260902230551 | 64 | 0 | 0.0 | 0.0 | 0.00 | 0.03 | 0.03 | 80 | 1019.9 |
| 20260902230107 | 64 | 0 | 0.0 | 0.0 | 0.00 | 0.03 | 0.03 | 79 | 1020.2 |
| 20260902225552 | 64 | 0 | 0.0 | 0.0 | 0.00 | 0.03 | 0.03 | 80 | 1020.3 |
| 20260902225052 | 64 | 0 | 0.0 | 0.0 | 0.00 | 0.03 | 0.03 | 80 | 1020.4 |
| 20260902224559 | 64 | 0 | 0.0 | 0.0 | 0.00 | 0.03 | 0.03 | 80 | 1020.6 |
| 20260902224052 | 65 | 0 | 0.0 | 0.0 | 0.00 | 0.03 | 0.03 | 79 | 1020.5 |
| 20260902223552 | 65 | 0 | 0.0 | 2.0 | 0.00 | 0.03 | 0.03 | 79 | 1020.6 |
| 20260902223101 | 65 | 0 | 0.0 | 6.0 | 0.00 | 0.03 | 0.03 | 78 | 1020.6 |
| 20260902222552 | 65 | 0 | 0.0 | 6.0 | 0.00 | 0.03 | 0.03 | 76 | 1020.8 |
| 20260902222054 | 65 | 0 | 0.0 | 6.0 | 0.00 | 0.03 | 0.03 | 76 | 1020.8 |
| 20260902221608 | 65 | 0 | 0.0 | 0.0 | 0.00 | 0.03 | 0.03 | 79 | 1020.8 |
| 20260902221051 | 65 | 0 | 0.0 | 0.0 | 0.00 | 0.03 | 0.03 | 78 | 1020.5 |
| 20260902220552 | 65 | 0 | 0.0 | 0.0 | 0.00 | 0.03 | 0.03 | 81 | 1020.4 |
| 20260902215548 | 66 | 0 | 0.0 | 0.0 | 0.00 | 0.03 | 0.03 | 79 | 1020.7 |
| 20260902215052 | 66 | 0 | 0.0 | 0.0 | 0.00 | 0.03 | 0.03 | 79 | 1020.8 |
| 20260902214606 | 66 | 0 | 0.0 | 0.0 | 0.00 | 0.03 | 0.03 | 78 | 1020.8 |
| 20260902214052 | 66 | 0 | 0.0 | 0.0 | 0.00 | 0.03 | 0.03 | 78 | 1020.7 |
| 20260902213555 | 66 | 0 | 0.0 | 3.0 | 0.00 | 0.03 | 0.03 | 78 | 1020.7 |
| 20260902213059 | 66 | 0 | 0.0 | 3.0 | 0.00 | 0.03 | 0.03 | 78 | 1020.6 |
| 20260902212551 | 66 | 0 | 0.0 | 0.0 | 0.00 | 0.03 | 0.03 | 79 | 1020.7 |
| 20260902212052 | 66 | 0 | 0.0 | 1.0 | 0.01 | 0.03 | 0.03 | 79 | 1020.7 |
| 20260902211615 | 66 | 0 | 0.0 | 1.0 | 0.01 | 0.03 | 0.03 | 78 | 1020.9 |
| 20260902211052 | 66 | 0 | 0.0 | 1.0 | 0.01 | 0.03 | 0.03 | 78 | 1020.9 |
| 20260902210554 | 67 | 0 | 0.0 | 0.0 | 0.01 | 0.03 | 0.03 | 77 | 1021.0 |
| 20260902210119 | 67 | 0 | 0.0 | 0.0 | 0.01 | 0.03 | 0.03 | 77 | 1021.0 |
| 20260902205551 | 67 | 0 | 0.0 | 2.0 | 0.01 | 0.03 | 0.03 | 76 | 1020.9 |
| 20260902205052 | 67 | 0 | 0.0 | 2.0 | 0.01 | 0.03 | 0.03 | 77 | 1020.8 |
| 20260902204602 | 67 | 0 | 0.0 | 3.0 | 0.01 | 0.03 | 0.03 | 76 | 1020.9 |
| 20260902204051 | 67 | 0 | 0.0 | 3.0 | 0.01 | 0.03 | 0.03 | 76 | 1021.0 |
| 20260902203552 | 67 | 0 | 0.0 | 0.0 | 0.01 | 0.03 | 0.03 | 77 | 1020.8 |
| 20260902203059 | 67 | 0 | 0.0 | 0.0 | 0.01 | 0.03 | 0.03 | 75 | 1020.7 |
| 20260902202551 | 67 | 0 | 0.0 | 0.0 | 0.01 | 0.03 | 0.03 | 75 | 1020.6 |
| 20260902202052 | 67 | 0 | 0.0 | 1.0 | 0.00 | 0.02 | 0.02 | 76 | 1020.9 |
| 20260902201612 | 67 | 0 | 0.0 | 8.0 | 0.00 | 0.02 | 0.02 | 76 | 1020.8 |
| 20260902201052 | 67 | 0 | 0.0 | 8.0 | 0.00 | 0.02 | 0.02 | 75 | 1021.0 |
| 20260902200555 | 67 | 121 | 1.0 | 8.0 | 0.00 | 0.02 | 0.02 | 75 | 1020.9 |
| 20260902200104 | 67 | 0 | 0.0 | 5.0 | 0.00 | 0.02 | 0.02 | 75 | 1021.0 |
| 20260902195552 | 67 | 0 | 0.0 | 0.0 | 0.00 | 0.02 | 0.02 | 76 | 1021.0 |
| 20260902195152 | 67 | 0 | 0.0 | 1.0 | 0.00 | 0.02 | 0.02 | 76 | 1021.2 |
| 20260902195058 | 67 | 0 | 0.0 | 1.0 | 0.00 | 0.02 | 0.02 | 76 | 1021.2 |
| 20260902194556 | 67 | 0 | 0.0 | 1.0 | 0.00 | 0.02 | 0.02 | 75 | 1021.1 |
| 20260902194051 | 67 | 0 | 0.0 | 0.0 | 0.00 | 0.02 | 0.02 | 76 | 1020.8 |
| 20260902193552 | 67 | 0 | 0.0 | 2.0 | 0.00 | 0.02 | 0.02 | 76 | 1021.0 |
| 20260902193100 | 67 | 0 | 0.0 | 4.0 | 0.00 | 0.02 | 0.02 | 76 | 1021.1 |
| 20260902192551 | 67 | 0 | 0.0 | 4.0 | 0.00 | 0.02 | 0.02 | 77 | 1021.3 |
| 20260902192052 | 67 | 0 | 0.0 | 0.0 | 0.00 | 0.02 | 0.02 | 76 | 1021.5 |
| 20260902191603 | 67 | 0 | 0.0 | 0.0 | 0.00 | 0.02 | 0.02 | 77 | 1021.4 |
| 20260902191053 | 67 | 0 | 0.0 | 3.0 | 0.00 | 0.02 | 0.02 | 78 | 1021.5 |
| 20260902190552 | 67 | 0 | 0.0 | 3.0 | 0.00 | 0.02 | 0.02 | 77 | 1021.5 |
| 20260902190057 | 67 | 0 | 0.0 | 4.0 | 0.00 | 0.02 | 0.02 | 77 | 1021.7 |
| 20260902185552 | 67 | 0 | 0.0 | 4.0 | 0.00 | 0.02 | 0.02 | 77 | 1021.7 |
| 20260902185051 | 67 | 0 | 0.0 | 0.0 | 0.00 | 0.02 | 0.02 | 77 | 1021.6 |
| 20260902184557 | 67 | 0 | 0.0 | 0.0 | 0.00 | 0.02 | 0.02 | 77 | 1021.7 |
| 20260902184451 | 67 | 0 | 0.0 | 0.0 | 0.00 | 0.02 | 0.02 | 76 | 1021.7 |
| 20260902182551 | 67 | 0 | 0.0 | 3.0 | 0.00 | 0.02 | 0.02 | 77 | 1021.6 |
| 20260902182054 | 67 | 0 | 0.0 | 3.0 | 0.00 | 0.02 | 0.02 | 77 | 1021.7 |
| 20260902181606 | 67 | 0 | 0.0 | 3.0 | 0.00 | 0.02 | 0.02 | 76 | 1021.8 |
| 20260902181131 | 67 | 0 | 0.0 | 1.0 | 0.00 | 0.02 | 0.02 | 76 | 1021.6 |
| 20260902180552 | 67 | 0 | 0.0 | 1.0 | 0.00 | 0.02 | 0.02 | 77 | 1021.6 |
| 20260902180118 | 67 | 0 | 0.0 | 3.0 | 0.00 | 0.02 | 0.02 | 77 | 1021.5 |
| 20260902175644 | 66 | 0 | 0.0 | 3.0 | 0.00 | 0.02 | 0.02 | 79 | 1021.4 |
| 20260902175534 | 66 | 0 | 0.0 | 3.0 | 0.00 | 0.02 | 0.02 | 78 | 1021.6 |
| 20260902173442 | 67 | 0 | 0.0 | 3.0 | 0.00 | 0.02 | 0.02 | 79 | 1021.8 |
| 20260902171051 | 67 | 0 | 0.0 | 4.0 | 0.00 | 0.02 | 0.02 | 79 | 1022.0 |
| 20260902170551 | 67 | 0 | 0.0 | 0.0 | 0.00 | 0.02 | 0.02 | 78 | 1022.0 |
| 20260902170111 | 66 | 0 | 0.0 | 7.0 | 0.00 | 0.02 | 0.02 | 80 | 1022.1 |
| 20260902165551 | 66 | 0 | 0.0 | 7.0 | 0.00 | 0.02 | 0.02 | 79 | 1022.2 |
| 20260902165051 | 66 | 0 | 0.0 | 6.0 | 0.00 | 0.02 | 0.02 | 80 | 1022.0 |
| 20260902164558 | 66 | 0 | 0.0 | 4.0 | 0.00 | 0.02 | 0.02 | 81 | 1022.0 |
| 20260902164052 | 66 | 0 | 0.0 | 0.0 | 0.00 | 0.02 | 0.02 | 82 | 1022.2 |
| 20260902163818 | 66 | 0 | 0.0 | 0.0 | 0.00 | 0.02 | 0.02 | 83 | 1022.3 |
| 20260902163244 | 66 | 0 | 0.0 | 5.0 | 0.00 | 0.02 | 0.02 | 83 | 1022.2 |
| 20260902162551 | 65 | 0 | 0.0 | 5.0 | 0.00 | 0.02 | 0.02 | 83 | 1022.3 |
| 20260902162054 | 65 | 0 | 0.0 | 4.0 | 0.00 | 0.02 | 0.02 | 84 | 1022.2 |
| 20260902162016 | 65 | 0 | 0.0 | 4.0 | 0.00 | 0.02 | 0.02 | 83 | 1022.3 |
| 20260902155551 | 65 | 0 | 0.0 | 3.0 | 0.00 | 0.02 | 0.02 | 86 | 1022.5 |
| 20260902155052 | 65 | 0 | 0.0 | 1.0 | 0.00 | 0.02 | 0.02 | 88 | 1022.3 |
| 20260902154601 | 65 | 0 | 0.0 | 1.0 | 0.00 | 0.02 | 0.02 | 89 | 1022.6 |
| 20260902154051 | 65 | 0 | 0.0 | 0.0 | 0.00 | 0.02 | 0.02 | 89 | 1022.6 |
| 20260902153552 | 65 | 0 | 0.0 | 0.0 | 0.00 | 0.02 | 0.02 | 90 | 1022.6 |
| 20260902153057 | 65 | 0 | 0.0 | 0.0 | 0.00 | 0.02 | 0.02 | 91 | 1022.7 |
| 20260902152551 | 64 | 0 | 0.0 | 1.0 | 0.00 | 0.02 | 0.02 | 92 | 1022.7 |
| 20260902152051 | 64 | 0 | 0.0 | 2.0 | 0.00 | 0.02 | 0.02 | 92 | 1022.8 |
| 20260902151559 | 64 | 0 | 0.0 | 2.0 | 0.00 | 0.02 | 0.02 | 93 | 1022.6 |
| 20260902151050 | 64 | 132 | 0.0 | 2.0 | 0.00 | 0.02 | 0.02 | 94 | 1022.7 |
| 20260902150550 | 63 | 0 | 0.0 | 1.0 | 0.00 | 0.02 | 0.02 | 94 | 1022.6 |
| 20260902145551 | 63 | 0 | 0.0 | 0.0 | 0.00 | 0.02 | 0.02 | 94 | 1022.8 |
| 20260902145051 | 63 | 0 | 0.0 | 0.0 | 0.00 | 0.02 | 0.02 | 94 | 1022.6 |
| 20260902144610 | 63 | 0 | 0.0 | 0.0 | 0.00 | 0.02 | 0.02 | 95 | 1022.7 |
| 20260902144052 | 62 | 0 | 0.0 | 0.0 | 0.00 | 0.02 | 0.02 | 95 | 1022.8 |
| 20260902143551 | 62 | 0 | 0.0 | 0.0 | 0.00 | 0.02 | 0.02 | 95 | 1022.7 |
| 20260902143059 | 62 | 0 | 0.0 | 0.0 | 0.00 | 0.02 | 0.02 | 95 | 1022.8 |
| 20260902142552 | 62 | 0 | 0.0 | 0.0 | 0.00 | 0.02 | 0.02 | 95 | 1022.6 |
| 20260902142054 | 62 | 0 | 0.0 | 0.0 | 0.00 | 0.02 | 0.02 | 95 | 1022.6 |
| 20260902141559 | 62 | 0 | 0.0 | 1.0 | 0.00 | 0.02 | 0.02 | 95 | 1022.4 |
| 20260902141051 | 62 | 0 | 0.0 | 1.0 | 0.00 | 0.02 | 0.02 | 95 | 1022.6 |
| 20260902140551 | 62 | 0 | 0.0 | 1.0 | 0.00 | 0.02 | 0.02 | 95 | 1022.3 |
| 20260902140359 | 62 | 0 | 0.0 | 1.0 | 0.00 | 0.02 | 0.02 | 96 | 1022.2 |
| 20260902134051 | 62 | 166 | 0.0 | 0.0 | 0.00 | 0.02 | 0.02 | 96 | 1021.8 |
| 20260902133552 | 61 | 0 | 0.0 | 3.0 | 0.00 | 0.02 | 0.02 | 96 | 1022.0 |
| 20260902133058 | 61 | 0 | 0.0 | 3.0 | 0.00 | 0.02 | 0.02 | 96 | 1022.0 |
| 20260902132933 | 61 | 0 | 0.0 | 3.0 | 0.00 | 0.02 | 0.02 | 96 | 1022.0 |
| 20260902130551 | 60 | 0 | 0.0 | 0.0 | 0.00 | 0.02 | 0.02 | 95 | 1022.2 |
| 20260902130104 | 60 | 0 | 0.0 | 0.0 | 0.00 | 0.02 | 0.02 | 95 | 1022.3 |
| 20260902125551 | 60 | 0 | 0.0 | 0.0 | 0.00 | 0.02 | 0.02 | 95 | 1022.1 |
| 20260902125051 | 60 | 0 | 0.0 | 0.0 | 0.00 | 0.02 | 0.02 | 95 | 1022.2 |
| 20260902124600 | 60 | 0 | 0.0 | 0.0 | 0.00 | 0.02 | 0.02 | 95 | 1022.2 |
| 20260902124052 | 60 | 0 | 0.0 | 0.0 | 0.00 | 0.02 | 0.02 | 95 | 1022.1 |
| 20260902123551 | 60 | 0 | 0.0 | 0.0 | 0.00 | 0.02 | 0.02 | 95 | 1022.3 |
| 20260902123055 | 60 | 0 | 0.0 | 0.0 | 0.00 | 0.02 | 0.02 | 95 | 1022.3 |
| 20260902122550 | 60 | 0 | 0.0 | 0.0 | 0.00 | 0.02 | 0.02 | 95 | 1022.2 |
| 20260902122051 | 60 | 0 | 0.0 | 0.0 | 0.00 | 0.02 | 0.02 | 95 | 1022.2 |
| 20260902121600 | 60 | 0 | 0.0 | 0.0 | 0.00 | 0.02 | 0.02 | 95 | 1022.2 |
| 20260902121049 | 60 | 0 | 0.0 | 1.0 | 0.00 | 0.02 | 0.02 | 95 | 1022.3 |
| 20260902120551 | 60 | 0 | 0.0 | 1.0 | 0.00 | 0.02 | 0.02 | 95 | 1022.2 |
| 20260902115551 | 60 | 0 | 0.0 | 0.0 | 0.00 | 0.02 | 0.02 | 95 | 1022.1 |
| 20260902115048 | 60 | 0 | 0.0 | 0.0 | 0.00 | 0.02 | 0.02 | 95 | 1022.2 |
| 20260902114559 | 60 | 0 | 0.0 | 0.0 | 0.00 | 0.02 | 0.02 | 95 | 1022.2 |
| 20260902114050 | 60 | 0 | 0.0 | 0.0 | 0.00 | 0.02 | 0.02 | 95 | 1022.1 |
| 20260902113550 | 60 | 0 | 0.0 | 0.0 | 0.00 | 0.02 | 0.02 | 95 | 1022.2 |
| 20260902113058 | 60 | 0 | 0.0 | 0.0 | 0.00 | 0.02 | 0.02 | 95 | 1022.3 |
| 20260902112551 | 60 | 0 | 0.0 | 0.0 | 0.00 | 0.02 | 0.02 | 95 | 1022.2 |
| 20260902112051 | 60 | 0 | 0.0 | 0.0 | 0.00 | 0.02 | 0.02 | 95 | 1022.2 |
| 20260902111559 | 60 | 0 | 0.0 | 0.0 | 0.00 | 0.02 | 0.02 | 95 | 1022.0 |
| 20260902111048 | 60 | 0 | 0.0 | 0.0 | 0.00 | 0.02 | 0.02 | 95 | 1022.0 |
| 20260902110552 | 59 | 0 | 0.0 | 0.0 | 0.00 | 0.02 | 0.02 | 95 | 1022.0 |
| 20260902110104 | 59 | 0 | 0.0 | 0.0 | 0.00 | 0.02 | 0.02 | 95 | 1022.0 |
| 20260902105550 | 59 | 0 | 0.0 | 0.0 | 0.00 | 0.02 | 0.02 | 95 | 1021.9 |
| 20260902105051 | 59 | 0 | 0.0 | 0.0 | 0.00 | 0.02 | 0.02 | 95 | 1022.1 |
| 20260902104600 | 59 | 0 | 0.0 | 0.0 | 0.00 | 0.02 | 0.02 | 95 | 1022.0 |
| 20260902104052 | 59 | 0 | 0.0 | 0.0 | 0.00 | 0.02 | 0.02 | 95 | 1022.0 |
| 20260902103550 | 59 | 0 | 0.0 | 0.0 | 0.00 | 0.02 | 0.02 | 95 | 1022.1 |
| 20260902103100 | 59 | 0 | 0.0 | 0.0 | 0.00 | 0.02 | 0.02 | 95 | 1021.9 |
| 20260902102553 | 59 | 0 | 0.0 | 0.0 | 0.00 | 0.02 | 0.02 | 95 | 1021.9 |
| 20260902102051 | 59 | 0 | 0.0 | 0.0 | 0.00 | 0.02 | 0.02 | 94 | 1021.7 |
| 20260902101559 | 59 | 0 | 0.0 | 0.0 | 0.00 | 0.02 | 0.02 | 94 | 1021.7 |
| 20260902101051 | 59 | 0 | 0.0 | 0.0 | 0.00 | 0.02 | 0.02 | 94 | 1021.7 |
| 20260902100552 | 59 | 0 | 0.0 | 0.0 | 0.00 | 0.02 | 0.02 | 94 | 1021.7 |
| 20260902100110 | 59 | 0 | 0.0 | 0.0 | 0.01 | 0.02 | 0.02 | 94 | 1021.6 |
| 20260902095552 | 59 | 0 | 0.0 | 0.0 | 0.01 | 0.02 | 0.02 | 94 | 1021.4 |
| 20260902095050 | 59 | 0 | 0.0 | 0.0 | 0.01 | 0.02 | 0.02 | 94 | 1021.7 |
| 20260902094616 | 59 | 0 | 0.0 | 0.0 | 0.01 | 0.02 | 0.02 | 94 | 1021.7 |
| 20260902094051 | 59 | 0 | 0.0 | 0.0 | 0.01 | 0.02 | 0.02 | 94 | 1021.4 |
| 20260902093550 | 59 | 0 | 0.0 | 0.0 | 0.01 | 0.02 | 0.02 | 94 | 1021.5 |
| 20260902093105 | 59 | 0 | 0.0 | 0.0 | 0.01 | 0.02 | 0.02 | 94 | 1021.5 |
| 20260902092551 | 59 | 0 | 0.0 | 0.0 | 0.01 | 0.02 | 0.02 | 94 | 1021.6 |
| 20260902092053 | 60 | 0 | 0.0 | 0.0 | 0.01 | 0.02 | 0.02 | 94 | 1021.5 |
| 20260902091604 | 60 | 0 | 0.0 | 0.0 | 0.02 | 0.02 | 0.02 | 94 | 1021.4 |
| 20260902091050 | 60 | 0 | 0.0 | 0.0 | 0.02 | 0.02 | 0.02 | 94 | 1021.5 |
| 20260902090551 | 60 | 0 | 0.0 | 0.0 | 0.01 | 0.01 | 0.01 | 93 | 1021.4 |
| 20260902085551 | 60 | 0 | 0.0 | 0.0 | 0.01 | 0.01 | 0.01 | 93 | 1021.5 |
| 20260902085051 | 60 | 0 | 0.0 | 0.0 | 0.01 | 0.01 | 0.01 | 93 | 1021.5 |
| 20260902084556 | 60 | 0 | 0.0 | 0.0 | 0.01 | 0.01 | 0.01 | 93 | 1021.6 |
| 20260902084051 | 60 | 0 | 0.0 | 0.0 | 0.01 | 0.01 | 0.01 | 93 | 1021.5 |
| 20260902083551 | 60 | 0 | 0.0 | 0.0 | 0.01 | 0.01 | 0.01 | 93 | 1021.5 |
| 20260902083058 | 60 | 0 | 0.0 | 0.0 | 0.01 | 0.01 | 0.01 | 93 | 1021.8 |
| 20260902082551 | 60 | 0 | 0.0 | 0.0 | 0.01 | 0.01 | 0.01 | 93 | 1021.7 |
| 20260902082051 | 60 | 0 | 0.0 | 0.0 | 0.01 | 0.01 | 0.01 | 93 | 1021.5 |
| 20260902081601 | 60 | 0 | 0.0 | 0.0 | 0.00 | 0.00 | 0.00 | 92 | 1021.7 |
| 20260902081050 | 60 | 0 | 0.0 | 0.0 | 0.00 | 0.00 | 0.00 | 92 | 1021.7 |
| 20260902080552 | 60 | 0 | 0.0 | 0.0 | 0.00 | 0.00 | 0.00 | 92 | 1021.5 |
| 20260902080114 | 60 | 0 | 0.0 | 0.0 | 0.00 | 0.00 | 0.00 | 92 | 1021.6 |
| 20260902075554 | 60 | 0 | 0.0 | 0.0 | 0.00 | 0.00 | 0.00 | 92 | 1021.5 |
| 20260902075050 | 60 | 0 | 0.0 | 0.0 | 0.00 | 0.00 | 0.00 | 92 | 1021.6 |
| 20260902074557 | 61 | 0 | 0.0 | 0.0 | 0.00 | 0.00 | 0.00 | 92 | 1021.7 |
| 20260902074050 | 61 | 0 | 0.0 | 0.0 | 0.00 | 0.00 | 0.00 | 92 | 1021.7 |
| 20260902073551 | 61 | 0 | 0.0 | 0.0 | 0.00 | 0.00 | 0.00 | 92 | 1021.5 |
| 20260902073053 | 61 | 0 | 0.0 | 0.0 | 0.00 | 0.00 | 0.00 | 91 | 1021.6 |
| 20260902072551 | 61 | 0 | 0.0 | 0.0 | 0.00 | 0.00 | 0.00 | 91 | 1021.5 |
| 20260902072054 | 61 | 0 | 0.0 | 0.0 | 0.00 | 0.00 | 0.00 | 91 | 1021.5 |
| 20260902071556 | 61 | 0 | 0.0 | 0.0 | 0.00 | 0.00 | 0.00 | 91 | 1021.5 |
| 20260902071051 | 61 | 0 | 0.0 | 0.0 | 0.00 | 0.00 | 0.00 | 91 | 1021.5 |
| 20260902070551 | 61 | 0 | 0.0 | 0.0 | 0.00 | 0.00 | 0.00 | 91 | 1021.3 |
| 20260902070107 | 61 | 0 | 0.0 | 0.0 | 0.00 | 0.00 | 0.00 | 91 | 1021.3 |
| 20260902065551 | 61 | 0 | 0.0 | 0.0 | 0.00 | 0.00 | 0.00 | 91 | 1021.1 |
| 20260902065050 | 61 | 0 | 0.0 | 0.0 | 0.00 | 0.00 | 0.00 | 91 | 1021.1 |
| 20260902064609 | 62 | 0 | 0.0 | 0.0 | 0.00 | 0.00 | 0.00 | 91 | 1021.0 |
| 20260902064052 | 62 | 0 | 0.0 | 0.0 | 0.00 | 0.00 | 0.00 | 91 | 1021.0 |
| 20260902063550 | 62 | 0 | 0.0 | 0.0 | 0.00 | 0.00 | 0.00 | 91 | 1021.0 |
| 20260902063100 | 62 | 0 | 0.0 | 0.0 | 0.00 | 0.00 | 0.00 | 92 | 1021.1 |
| 20260902062553 | 62 | 0 | 0.0 | 0.0 | 0.00 | 0.00 | 0.00 | 92 | 1021.2 |
| 20260902062051 | 62 | 0 | 0.0 | 0.0 | 0.00 | 0.00 | 0.00 | 92 | 1020.9 |
| 20260902061054 | 62 | 0 | 0.0 | 0.0 | 0.00 | 0.00 | 0.00 | 91 | 1021.0 |
| 20260902060550 | 62 | 0 | 0.0 | 0.0 | 0.00 | 0.00 | 0.00 | 91 | 1020.9 |
| 20260902060120 | 62 | 0 | 0.0 | 0.0 | 0.00 | 0.00 | 0.00 | 91 | 1020.8 |
| 20260902055551 | 62 | 0 | 0.0 | 0.0 | 0.00 | 0.00 | 0.00 | 91 | 1020.7 |
| 20260902055051 | 62 | 0 | 0.0 | 0.0 | 0.00 | 0.00 | 0.00 | 91 | 1020.7 |
| 20260902054559 | 62 | 0 | 0.0 | 0.0 | 0.00 | 0.00 | 0.00 | 91 | 1020.7 |
| 20260902054051 | 62 | 0 | 0.0 | 0.0 | 0.00 | 0.00 | 0.00 | 91 | 1021.0 |
| 20260902053551 | 62 | 0 | 0.0 | 0.0 | 0.00 | 0.00 | 0.00 | 91 | 1020.8 |
| 20260902053122 | 62 | 0 | 0.0 | 0.0 | 0.00 | 0.00 | 0.00 | 91 | 1020.7 |
| 20260902052554 | 62 | 0 | 0.0 | 0.0 | 0.00 | 0.00 | 0.00 | 91 | 1020.6 |
| 20260902052050 | 62 | 0 | 0.0 | 0.0 | 0.00 | 0.00 | 0.00 | 91 | 1020.7 |
| 20260902051605 | 62 | 0 | 0.0 | 0.0 | 0.00 | 0.00 | 0.00 | 91 | 1020.4 |
| 20260902051051 | 62 | 0 | 0.0 | 0.0 | 0.00 | 0.00 | 0.00 | 91 | 1020.5 |
| 20260902050551 | 62 | 0 | 0.0 | 0.0 | 0.00 | 0.00 | 0.00 | 91 | 1020.5 |
| 20260902050104 | 62 | 0 | 0.0 | 0.0 | 0.00 | 0.00 | 0.00 | 91 | 1020.5 |
| 20260902045550 | 63 | 0 | 0.0 | 0.0 | 0.00 | 0.00 | 0.00 | 90 | 1020.5 |
| 20260902045053 | 63 | 0 | 0.0 | 0.0 | 0.00 | 0.00 | 0.00 | 90 | 1020.4 |
| 20260902044603 | 63 | 0 | 0.0 | 0.0 | 0.00 | 0.00 | 0.00 | 90 | 1020.5 |
| 20260902044051 | 63 | 0 | 0.0 | 0.0 | 0.00 | 0.00 | 0.00 | 90 | 1020.5 |
| 20260902043551 | 63 | 0 | 0.0 | 0.0 | 0.00 | 0.00 | 0.00 | 90 | 1020.3 |
| 20260902043101 | 63 | 0 | 0.0 | 0.0 | 0.00 | 0.00 | 0.00 | 90 | 1020.1 |
| 20260902042551 | 63 | 0 | 0.0 | 0.0 | 0.00 | 0.00 | 0.00 | 90 | 1020.1 |
| 20260902042050 | 63 | 0 | 0.0 | 0.0 | 0.00 | 0.00 | 0.00 | 90 | 1019.8 |
| 20260902041605 | 63 | 0 | 0.0 | 0.0 | 0.00 | 0.00 | 0.00 | 89 | 1019.8 |
| 20260902041051 | 63 | 0 | 0.0 | 0.0 | 0.00 | 0.00 | 0.00 | 89 | 1019.8 |
| 20260902040551 | 63 | 0 | 0.0 | 0.0 | 0.00 | 0.00 | 0.00 | 89 | 1019.8 |
| 20260902040105 | 63 | 0 | 0.0 | 0.0 | 0.00 | 0.00 | 0.00 | 89 | 1019.7 |
| 20260902035552 | 63 | 0 | 0.0 | 0.0 | 0.00 | 0.00 | 0.00 | 89 | 1019.8 |
| 20260902035050 | 63 | 0 | 0.0 | 0.0 | 0.00 | 0.00 | 0.00 | 89 | 1019.8 |
| 20260902034607 | 63 | 0 | 0.0 | 0.0 | 0.00 | 0.00 | 0.00 | 89 | 1019.9 |
| 20260902034052 | 63 | 0 | 0.0 | 0.0 | 0.00 | 0.00 | 0.00 | 89 | 1019.8 |
| 20260902033553 | 63 | 0 | 0.0 | 0.0 | 0.00 | 0.00 | 0.00 | 89 | 1019.7 |
| 20260902033110 | 63 | 0 | 0.0 | 0.0 | 0.00 | 0.00 | 0.00 | 89 | 1019.5 |
| 20260902032551 | 63 | 0 | 0.0 | 0.0 | 0.00 | 0.00 | 0.00 | 89 | 1019.7 |